This is the latest recevied weather packets stored in our database for station/object NA9VY-8. If no packets are shown the sender has not sent any weather packets the latest 10 day(s).
| Time | Temp. | Humidity | Pressure | Rain* | Wind** | Luminosity | Snow |
|---|---|---|---|---|---|---|---|
| 1778008634 | 15.56° C | 99% | 1011 hPa | 0 mm | - | 69 W/m² | - |
| 1778008332 | 15.56° C | 99% | 1011.2 hPa | 0 mm | - | 160 W/m² | - |
| 1778008028 | 15.56° C | 99% | 1011.3 hPa | 0 mm | - | 194 W/m² | - |
| 1778007727 | 15° C | 99% | 1011.3 hPa | 0 mm | - | 110 W/m² | - |
| 1778007425 | 15° C | 99% | 1011.3 hPa | 0 mm | - | 69 W/m² | - |
| 1778007121 | 15° C | 99% | 1011.1 hPa | 0 mm | - | 49 W/m² | - |
| 1778006817 | 15.56° C | 99% | 1011.3 hPa | 0 mm | - | 109 W/m² | - |
| 1778006515 | 15° C | 99% | 1011.3 hPa | 0 mm | - | 116 W/m² | - |
| 1778006211 | 15° C | 99% | 1011.3 hPa | 0 mm | - | 135 W/m² | - |
| 1778005909 | 15° C | 99% | 1011.2 hPa | 0 mm | - | 119 W/m² | - |
| 1778005605 | 15° C | 99% | 1011.4 hPa | 0 mm | - | 114 W/m² | - |
| 1778005302 | 15° C | 99% | 1011.6 hPa | 0 mm | - | 97 W/m² | - |
| 1778004998 | 15° C | 99% | 1011.5 hPa | 0 mm | - | 62 W/m² | - |
| 1778004696 | 15° C | 99% | 1011.5 hPa | 0 mm | - | 71 W/m² | - |
| 1778004392 | 15° C | 99% | 1011.4 hPa | 0 mm | - | 65 W/m² | - |
| 1778004090 | 15° C | 99% | 1011.6 hPa | 0 mm | - | 76 W/m² | - |
| 1778003786 | 15° C | 99% | 1011.4 hPa | 0 mm | - | 69 W/m² | - |
| 1778003482 | 15° C | 99% | 1011.3 hPa | 0 mm | - | 45 W/m² | - |
| 1778003178 | 15° C | 98% | 1011.5 hPa | 0 mm | - | 48 W/m² | - |
| 1778002874 | 15° C | 98% | 1011.5 hPa | 0 mm | - | 44 W/m² | - |
| 1778002571 | 15° C | 98% | 1011.9 hPa | 0 mm | - | 44 W/m² | - |
| 1778002268 | 15° C | 97% | 1012.1 hPa | 0 mm | - | 43 W/m² | - |
| 1778001966 | 15° C | 97% | 1012.2 hPa | 0 mm | - | 45 W/m² | - |
| 1778001662 | 15° C | 96% | 1012 hPa | 0 mm | - | 51 W/m² | - |
| 1778001357 | 15.56° C | 95% | 1012.2 hPa | 0 mm | - | 65 W/m² | - |
* Rain latest hour (hover to see other rain measurements)
** Current wind speed in m/s (hover to see current wind gust speed)